DELTA 1 DEB, 27727

Orbit data source: Space-Track

DELTA 1 DEB, 27727 is space debris in LEO originally from a launch on Thu, 29 Jul 1976 UTC launched from the Air Force Western Test Range (AFWTR). Debris objects in space refer to the collection of defunct objects orbiting the Earth. Examples of debris include non-operational satellites, rocket bodies, and fragments generated from explosions, collisions, or faulty payload assembly.

Loading next visibility...
Identifier
27727, 1976-077FS
Orbit
LEO
Country
Flag of USUS
Related business
Manufacturer
Unknown
Mission
Spacecraft
Bus & Motor
Unknown
Mass
Unknown
Launch date (UTC)
1976-07-29 (49 years ago)
Launch vehicle
Unknown
Launch site
Air Force Western Test Range (AFWTR)
Object type
Payload
Rocket body
Debris
Shape & HBR
Unknown shape, 0.1 m
Radar Cross Section
Small (<0.1 m²)

Expand to show TLE details & history
Last TLE update: 6 days ago

TLE from 6 days ago
0 DELTA 1 DEB
1 27727U 76077FS  25283.82028343  .00000032  00000-0  10464-2 0  9994
2 27727 102.7160  30.1665 0414226 193.3808 324.2556 11.68378053482458
Epoch: 2025-10-10T19:41Z
TLE epoch observation values (Epoch: 2025-10-10T19:41:12.488Z)
Latitude
24.62337°
Longitude
-98.88897°
Altitude
1,557.383 km
Speed
7.207 km/s
True Right ascension
14h 24m 17s
True Declination
24° 30' 23"
Sunlit
Object was in daylight at epoch
Visualization orbit readout
Latitude
Unknown
Longitude
Unknown
Altitude
Unknown
Speed
Unknown
Apparent Right ascension
Unknown
Apparent Declination
Unknown
Sunlit
N/A
Visualization observer readout
Local Sidereal Time
12:33:20
Azimuth
Unknown
Elevation
Unknown
Doppler factor
Unknown
Orbital elements
Apogee altitude
2,163.054 km
Perigee altitude
1,483.602 km
Semi-major axis
8,201.465 km
Eccentricity
0.04142
Inclination
102.716°
RAAN
30.1665°
Arg. of periapsis
193.3808°
True anomaly
321.36255°
Mean anomaly
324.2556°
Eccentric anomaly
322.82139°
Mean motion
2.92217 °/min
Orbital period
123.2 mins
BSTAR
0.0010464
Loading maneuver chart data...
Computing Atmospheric mass density...
Loading historical data...
Loading historical data...
Loading historical data...
Loading historical data...
Loading historical data...
Loading historical data...
Loading historical data...

Documentation

Showing up to 5 results
|